GW0435 Weather Reports


Display with metric or nautical units.
time (UTC)temp
F
wind
direction
speed
MPH
gust
MPH
rain 1hr
in
rain 24hr
in
rain mn
in
humidity
%
barometer
mb
20260508013053 65 248 8.0 14.0 0.00 0.00 0.00 9 1007.8
20260508011549 65 248 7.0 16.0 0.00 0.00 0.00 9 1007.7
20260508010044 66 265 9.0 13.0 0.00 0.00 0.00 9 1007.7
20260508004542 68 279 5.0 9.0 0.00 0.00 0.00 10 1007.9
20260508003038 68 279 3.0 11.0 0.00 0.00 0.00 10 1008.0
20260508001533 68 279 1.0 10.0 0.00 0.00 0.00 10 1008.2
20260508000027 68 279 2.0 9.0 0.00 0.00 0.00 10 1008.4
20260507234523 69 279 3.0 9.0 0.00 0.00 0.00 11 1008.5
20260507233030 69 281 2.0 13.0 0.00 0.00 0.00 13 1008.6
20260507231514 70 287 5.0 13.0 0.00 0.00 0.00 13 1008.6
20260507230010 69 287 4.0 12.0 0.00 0.00 0.00 15 1008.7
20260507224505 69 287 4.0 9.0 0.00 0.00 0.00 16 1008.9
20260507223001 68 290 5.0 13.0 0.00 0.00 0.00 17 1008.9
20260507221557 70 309 3.0 11.0 0.00 0.00 0.00 17 1009.4
20260507220053 69 309 5.0 11.0 0.00 0.00 0.00 15 1009.8
20260507214608 67 333 2.0 8.0 0.00 0.00 0.00 16 1010.1
20260507213051 68 333 3.0 10.0 0.00 0.00 0.00 14 1010.4
20260507211539 68 333 3.0 9.0 0.00 0.00 0.00 12 1010.7
20260507210048 68 333 4.0 9.0 0.00 0.00 0.00 11 1011.0
20260507204530 66 333 3.0 7.0 0.00 0.00 0.00 10 1011.4
20260507203026 65 333 3.0 11.0 0.00 0.00 0.00 8 1011.8
20260507201523 65 325 4.0 8.0 0.00 0.00 0.00 9 1011.9
20260507200019 64 324 5.0 11.0 0.00 0.00 0.00 8 1012.2
20260507194519 64 315 3.0 12.0 0.00 0.00 0.00 9 1012.2
20260507193015 63 346 6.0 11.0 0.00 0.00 0.00 10 1012.4
20260507191513 63 350 5.0 12.0 0.00 0.00 0.00 14 1012.6
20260507190011 62 350 5.0 15.0 0.00 0.00 0.00 15 1012.7
20260507184515 61 360 8.0 14.0 0.00 0.00 0.00 16 1012.8
20260507183004 60 360 7.0 14.0 0.00 0.00 0.00 16 1013.0
20260507181600 59 24 8.0 16.0 0.00 0.00 0.00 18 1013.2
20260507174553 57 5 7.0 16.0 0.00 0.00 0.00 25 1013.7
20260507173049 55 355 8.0 17.0 0.00 0.00 0.00 29 1014.0
20260507171550 54 17 10.0 17.0 0.00 0.00 0.00 33 1014.0
20260507170041 53 15 9.0 20.0 0.00 0.00 0.00 35 1014.1
20260507164536 51 20 8.0 18.0 0.00 0.00 0.00 42 1014.2
20260507163032 49 5 8.0 17.0 0.00 0.00 0.00 49 1014.4
20260507161534 46 5 10.0 17.0 0.00 0.00 0.00 51 1014.5
20260507160025 45 5 11.0 17.0 0.00 0.00 0.00 54 1014.7
20260507154529 44 5 10.0 19.0 0.00 0.00 0.00 55 1014.9
20260507153029 43 9 7.0 16.0 0.00 0.00 0.00 58 1015.0
20260507151511 42 355 9.0 16.0 0.00 0.00 0.00 59 1015.1
20260507150007 42 355 6.0 12.0 0.00 0.00 0.00 62 1015.0
20260507144502 41 350 6.0 11.0 0.00 0.00 0.00 66 1015.2
20260507143110 40 350 6.0 12.0 0.00 0.00 0.00 69 1015.4
20260507141553 40 265 6.0 10.0 0.00 0.00 0.00 71 1015.5
20260507140049 39 246 5.0 8.0 0.00 0.00 0.00 78 1015.7
20260507134545 37 246 4.0 6.0 0.00 0.00 0.00 80 1015.8
20260507133040 36 246 3.0 5.0 0.00 0.00 0.00 82 1015.8
20260507131546 35 246 1.0 4.0 0.00 0.00 0.00 85 1015.9
20260507130039 34 246 0.0 3.0 0.00 0.00 0.00 88 1016.0
20260507124529 32 246 2.0 4.0 0.00 0.00 0.00 89 1015.8
20260507123024 31 246 2.0 5.0 0.00 0.00 0.00 88 1015.8
20260507121521 31 246 1.0 3.0 0.00 0.00 0.00 88 1015.8
20260507120022 31 246 1.0 3.0 0.00 0.00 0.00 87 1015.7
20260507114517 31 246 1.0 3.0 0.00 0.00 0.00 85 1015.6
20260507113013 32 246 0.0 2.0 0.00 0.00 0.00 84 1015.5
20260507111514 33 246 0.0 1.0 0.00 0.00 0.00 84 1015.4
20260507110011 33 246 0.0 0.0 0.00 0.00 0.00 83 1015.4
20260507104510 33 246 0.0 1.0 0.00 0.00 0.00 83 1015.4
20260507103022 34 246 0.0 1.0 0.00 0.00 0.00 82 1015.6
20260507101509 33 246 0.0 1.0 0.00 0.00 0.00 82 1015.5
20260507100008 33 246 1.0 3.0 0.00 0.00 0.00 80 1015.5
20260507094505 33 246 0.0 2.0 0.00 0.00 0.00 79 1015.5
20260507093005 33 246 1.0 2.0 0.00 0.00 0.00 78 1015.5
20260507091503 33 246 0.0 2.0 0.00 0.00 0.00 76 1015.4
20260507090100 34 246 1.0 3.0 0.00 0.00 0.00 77 1015.3
20260507084602 34 246 0.0 2.0 0.00 0.00 0.00 81 1015.2
20260507083058 34 246 1.0 2.0 0.00 0.00 0.00 81 1015.2
20260507081554 35 246 0.0 1.0 0.00 0.00 0.00 80 1015.2
20260507080107 35 246 0.0 4.0 0.00 0.00 0.00 81 1015.1
20260507074552 35 246 0.0 5.0 0.00 0.00 0.00 82 1015.1
20260507073049 35 246 0.0 4.0 0.00 0.00 0.00 80 1014.8
20260507071606 36 246 1.0 4.0 0.00 0.00 0.00 80 1014.6
20260507070046 36 246 1.0 4.0 0.00 0.00 0.00 80 1014.6
20260507064544 36 246 2.0 4.0 0.00 0.00 0.00 79 1014.4
20260507063045 36 246 2.0 4.0 0.00 0.00 0.00 78 1014.2
20260507061540 37 246 2.0 4.0 0.00 0.00 0.00 77 1014.0
20260507060042 37 246 2.0 4.0 0.00 0.00 0.00 77 1013.7
20260507054535 37 246 1.0 4.0 0.00 0.01 0.00 76 1013.5
20260507053102 37 246 2.0 5.0 0.00 0.01 0.00 75 1013.5
20260507051541 38 246 2.0 6.0 0.00 0.01 0.00 72 1013.3
20260507050036 38 246 2.0 5.0 0.00 0.01 0.00 67 1013.3
20260507044532 40 246 1.0 4.0 0.00 0.02 0.00 65 1013.2
20260507043031 40 246 1.0 3.0 0.00 0.02 0.00 64 1013.0
20260507041529 41 246 1.0 4.0 0.00 0.02 0.00 60 1012.9
20260507040028 42 246 1.0 3.0 0.00 0.02 0.00 57 1012.6
20260507034534 43 246 2.0 4.0 0.00 0.03 0.00 53 1012.5
20260507033036 44 246 0.0 2.0 0.00 0.03 0.00 51 1012.2
20260507031521 45 246 1.0 3.0 0.00 0.03 0.00 47 1011.9
20260507030025 46 246 0.0 2.0 0.00 0.03 0.00 47 1011.5
20260507024516 47 246 1.0 3.0 0.00 0.08 0.00 44 1011.1
20260507023023 47 246 0.0 3.0 0.00 0.08 0.00 43 1010.8
20260507021513 49 246 3.0 6.0 0.00 0.08 0.00 41 1010.6
20260507020017 50 246 3.0 9.0 0.00 0.08 0.00 39 1010.5